GOES 2 [-]

Last updated on Oct. 25, 2020, 5:55 a.m. UTC

1 10061U 77048A   20298.27878597 -.00000302  00000-0  00000-0 0  9994
2 10061  11.1532 313.6696 0014478   0.3115 335.4134  0.99402356 25773
UTC
Height (km)
Latitude
Longitude
Inclination
Orbital Period
UTC large
Height (km)
Speed (km/s)
/
Latitude / Longitude
Inclination (degrees)
Orbital Period (minutes)
Azimuth
Elevation
Range (km)
Doppler Factor
iOS Compass Heading
iOS Angle

Next 30 passes for location: Hong Kong

Rise time Rise Azimuth (degrees) Set time Set Azimuth (degrees) Duration Max altitude (degrees)

No matching passes for this satellites